Location: Bli��� Lhota
(48.7570°N, 14.0120°E)
Time: 15:23:53
(UTC+00:00)

Cosmos 1891 Rocket - Pass Details

Date: 18 September 2020
Orbit: 934 x 1018 km, 82.9° (Epoch: 23 October)

Event Time Altitude Azimuth Distance (km) Brightness Sun altitude
Rises 18:25:12 0° 180° (S) 3,645 7.3 -13.1°
Reaches altitude 10° 18:27:43 10° 179° (S) 2,690 6.6 -13.4°
Maximum altitude 18:33:49 74° 96° (E) 991 4.4 -14.4°
Drops below altitude 10° 18:39:53 10° 12° (NNE) 2,665 6.9 -15.3°
Sets 18:42:21 0° 11° (N) 3,608 7.6 -15.7°
